Norwood, MA

1:23 PM EST on January 17, 2017 (GMT -0500)
Norwood Memorial

Weather History for KOWD - March, 2013

Change the Weather History Date:

Wednesday, March 20, 2013

  Actual Average Record
Temperature  
Mean Temperature 32 °F -  
Max Temperature 39 °F 44 °F 81 °F (2012)
Min Temperature 26 °F 27 °F 8 °F (2004)
Degree Days  
Heating Degree Days 32    
Moisture  
Dew Point 21 °F    
Average Humidity 67    
Maximum Humidity 92    
Minimum Humidity 41    
Precipitation  
Precipitation 0.00 in - - ()
Sea Level Pressure  
Sea Level Pressure 29.75 in    
Wind  
Wind Speed 9 mph (West)    
Max Wind Speed 22 mph    
Max Gust Speed 30 mph    
Visibility 10 miles    
Events      
Averages and records for this station are not official NWS values.
T = Trace of Precipitation, MM = Missing Value Source: NWS Daily Summary

Daily Weather History Graph

Daily Weather History Graph

Search for Another Location

Airport or City:

Trip Planner

Search our weather history database for the weather conditions in past years. The results will help you decide how hot, cold, wet, or windy it might be!

Date:

Astronomy

Mar. 20, 2013 Rise Set
Actual Time 6:47 AM EDT 6:57 PM EDT
Civil Twilight 6:19 AM EDT 7:25 PM EDT
Nautical Twilight 5:46 AM EDT 7:57 PM EDT
Astronomical Twilight 5:13 AM EDT 8:31 PM EDT
Moon 12:23 PM EDT (3/20) 2:30 AM EDT (3/20)
Length of Visible Light 13h 05m
Length of Day
12h 09m
First Quarter, 59% of the Moon is Illuminated
Mar 20
First Quarter
Mar 27
Full
Apr 3
Last Quarter
Apr 10
New
Apr 18
First Quarter

Hourly Weather History & Observations

Time (EDT) Temp. Windchill Dew Point Humidity Pressure Visibility Wind Dir Wind Speed Gust Speed Precip Events Conditions
12:18 AM 30.2 °F 23.4 °F 26.6 °F 86% 29.70 in 10.0 mi WNW 6.9 mph - N/A   Mostly Cloudy
12:53 AM 30.0 °F 21.1 °F 25.0 °F 82% 29.71 in 10.0 mi NW 10.4 mph - N/A   Overcast
1:03 AM 28.4 °F 19.1 °F 24.8 °F 86% 29.71 in 10.0 mi NW 10.4 mph - N/A   Overcast
1:32 AM 28.4 °F 21.2 °F 23.0 °F 80% 29.70 in 10.0 mi NNW 6.9 mph - N/A   Mostly Cloudy
1:53 AM 28.0 °F 20.0 °F 23.0 °F 81% 29.72 in 10.0 mi NW 8.1 mph - N/A   Mostly Cloudy
2:46 AM 28.4 °F 21.2 °F 23.0 °F 80% 29.72 in 10.0 mi WNW 6.9 mph - N/A   Overcast
2:53 AM 28.0 °F 20.8 °F 23.0 °F 81% 29.73 in 10.0 mi WNW 6.9 mph - N/A   Overcast
3:33 AM 26.6 °F - 23.0 °F 86% 29.72 in 10.0 mi Calm Calm - N/A   Partly Cloudy
3:53 AM 27.0 °F - 23.0 °F 85% 29.73 in 10.0 mi Calm Calm - N/A   Clear
4:53 AM 27.0 °F 18.7 °F 23.0 °F 85% 29.74 in 10.0 mi West 8.1 mph - N/A   Overcast
5:53 AM 27.0 °F 18.7 °F 21.0 °F 78% 29.75 in 10.0 mi WSW 8.1 mph - N/A   Clear
6:53 AM 27.0 °F 17.3 °F 19.0 °F 72% 29.76 in 10.0 mi West 10.4 mph - N/A   Clear
7:53 AM 28.9 °F 18.6 °F 19.0 °F 67% 29.76 in 10.0 mi West 12.7 mph 18.4 mph N/A   Clear
8:53 AM 30.9 °F 20.2 °F 19.0 °F 61% 29.75 in 10.0 mi West 15.0 mph - N/A   Clear
9:53 AM 33.1 °F 22.6 °F 18.0 °F 54% 29.75 in 10.0 mi West 16.1 mph - N/A   Clear
10:53 AM 34.0 °F 22.1 °F 18.0 °F 52% 29.76 in 10.0 mi West 21.9 mph 29.9 mph N/A   Clear
11:53 AM 35.1 °F 25.9 °F 18.0 °F 50% 29.76 in 10.0 mi West 13.8 mph - N/A   Mostly Cloudy
12:53 PM 36.0 °F 25.6 °F 16.0 °F 44% 29.76 in 10.0 mi West 18.4 mph 26.5 mph N/A   Scattered Clouds
1:53 PM 37.0 °F 26.4 °F 15.1 °F 41% 29.75 in 10.0 mi West 20.7 mph 28.8 mph N/A   Partly Cloudy
2:53 PM 37.9 °F 27.9 °F 16.0 °F 41% 29.74 in 10.0 mi West 19.6 mph 27.6 mph N/A   Partly Cloudy
3:53 PM 39.0 °F 29.9 °F 18.0 °F 43% 29.74 in 10.0 mi West 17.3 mph 26.5 mph N/A   Clear
4:53 PM 39.0 °F 29.9 °F 18.0 °F 43% 29.74 in 10.0 mi West 17.3 mph 26.5 mph N/A   Clear
5:53 PM 37.9 °F 30.0 °F 18.0 °F 45% 29.77 in 10.0 mi West 12.7 mph 20.7 mph N/A   Mostly Cloudy
6:53 PM 37.0 °F 31.6 °F 18.0 °F 46% 29.79 in 10.0 mi WSW 6.9 mph - N/A   Overcast
7:53 PM 35.1 °F 32.2 °F 19.9 °F 54% 29.79 in 10.0 mi South 3.5 mph - N/A   Clear
8:53 PM 32.0 °F - 24.1 °F 73% 29.80 in 10.0 mi Calm Calm - N/A   Clear
9:53 PM 30.0 °F - 25.0 °F 82% 29.81 in 10.0 mi Calm Calm - N/A   Clear
10:53 PM 26.1 °F - 24.1 °F 92% 29.82 in 10.0 mi Calm Calm - N/A   Partly Cloudy
11:53 PM 27.0 °F - 23.0 °F 85% 29.81 in 10.0 mi Calm Calm - N/A   Partly Cloudy